User: anonymous   Login
Location: Unspecified
(0.0000°N, 0.0000°E)
Time: 09:28:50
(UTC+00:00)
Language:

CSUNSAT 1 - Orbit

View from above orbital plane
View from above orbital plane
View from above satellite
View from above satellite

Ground track
Ground track

The orbit data is extracted from the following two-line orbital elements,

1 42715U 98067LW  18267.86226248 +.00036785 +00000-0 +26666-3 0  9999
2 42715 051.6333 209.3690 0003435 161.9543 198.1578 15.73041730077201
Epoch (UTC): 24 September 2018 20:41:39
Eccentricity: 0.0003435
inclination: 51.6333°
perigee height: 348 km
apogee height: 352 km
right ascension of ascending node: 209.3690°
argument of perigee: 161.9543°
revolutions per day: 15.73041730
mean anomaly at epoch: 198.1578°
orbit number at epoch: 7720

The dashed part of the orbit path shows where the satellite is in the earth's shadow,  

DLR